Meteo Giornale » Osservazioni meteo Francia » Cherbourg-Maupertus
ore: 23:30 - Osservazioni Meteo Cherbourg-Maupertus
Lat. 49° 39' N Lon. 1° 28' W Alt. 138 metri s.l.m.
15 °C
Sereno
Temp. 24 Ore
15 °C
21 °C
Ovest
14.8 Km/h
Dew point 12 °C
Umidità 82 %
Visibilità 10 Km
Il sole sorge alle ore 07:20
Il sole tramonta alle ore 20:52
| Data e Ora | Cielo e Fenomeni | T °C | DP °C | Um. % | Pres. hPa | Vis. km | Vento km/h | |
|---|---|---|---|---|---|---|---|---|
| Oggi h: 23:30 | Sereno | 15 | 12 | 82 | 1021 | 10 | O 14.8 | |
| Oggi h: 23:00 | Sereno | 15 | 11 | 76 | 1021 | 10 | O 16.7 | |
| Oggi h: 22:30 | Sereno | 15 | 12 | 82 | 1020 | 10 | O 20.3 | |
| Oggi h: 22:00 | Poco Nuvoloso | 15 | 12 | 82 | 1020 | 10 | O 18.5 | |
| Oggi h: 21:30 | Sereno | 15 | 12 | 82 | 1020 | 10 | O 18.5 | |
| Oggi h: 21:00 | Sereno | 16 | 12 | 77 | 1020 | 10 | O 20.3 | |
| Oggi h: 20:30 | Nuvoloso | 16 | 12 | 77 | 1019 | 10 | O 25.9 | |
| Oggi h: 20:00 | Molto Nuvoloso | 17 | 13 | 77 | 1019 | 10 | O 24 | |
| Oggi h: 19:30 | Molto Nuvoloso | 17 | 13 | 77 | 1019 | 10 | O 27.8 | |
| Oggi h: 19:00 | Molto Nuvoloso | 18 | 13 | 72 | 1019 | 10 | O 27.8 | |
| Oggi h: 18:30 | Molto Nuvoloso | 18 | 13 | 72 | 1019 | 10 | O 24 | |
| Oggi h: 18:00 | Coperto | 19 | 13 | 68 | 1019 | 10 | O 25.9 | |
| Oggi h: 17:30 | Coperto | 21 | 14 | 64 | 1019 | 10 | O 27.8 | |
| Oggi h: 17:00 | Coperto | 19 | 14 | 72 | 1018 | 10 | O/NO 20.3 | |
| Oggi h: 16:30 | Coperto | 19 | 15 | 77 | 1018 | 10 | O/NO 24 | |
| Oggi h: 16:00 | Molto Nuvoloso | 21 | 14 | 64 | 1018 | 10 | O 27.8 | |
| Oggi h: 15:30 | Molto Nuvoloso | 20 | 14 | 68 | 1018 | 10 | O 29.6 | |
| Oggi h: 15:00 | Molto Nuvoloso | 20 | 14 | 68 | 1017 | 10 | O/NO 31.5 | |
| Oggi h: 14:30 | Molto Nuvoloso | 20 | 14 | 68 | 1017 | 10 | O 31.5 | |
| Oggi h: 14:00 | Coperto | 20 | 15 | 72 | 1017 | 10 | O 31.5 | |
| Oggi h: 13:30 | Molto Nuvoloso | 21 | 15 | 68 | 1016 | 10 | O 31.5 | |
| Oggi h: 13:00 | Molto Nuvoloso | 20 | 14 | 68 | 1016 | 10 | O 27.8 | |
| Oggi h: 12:30 | Molto Nuvoloso | 19 | 13 | 68 | 1015 | 10 | O 31.5 | |
| Oggi h: 12:00 | Molto Nuvoloso | 20 | 14 | 68 | 1015 | 10 | O 27.8 | |
| Oggi h: 11:30 | Nuvoloso | 19 | 15 | 77 | 1015 | 10 | O 25.9 | |
| Oggi h: 11:00 | Molto Nuvoloso | 18 | 14 | 77 | 1014 | 10 | O/NO 27.8 | |
| Oggi h: 10:30 | Molto Nuvoloso | 18 | 14 | 77 | 1014 | 10 | O 25.9 | |
| Oggi h: 10:00 | Molto Nuvoloso | 18 | 15 | 82 | 1013 | 10 | O 25.9 | |
| Oggi h: 09:30 | Molto Nuvoloso | 17 | 15 | 88 | 1013 | 10 | O 24 | |
| Oggi h: 09:00 | Coperto | 17 | 15 | 88 | 1012 | 10 | O 22.2 | |
| Oggi h: 08:30 | Molto Nuvoloso | 16 | 15 | 93 | 1012 | 10 | O 24 | |
| Oggi h: 08:00 | Nuvoloso | 16 | 14 | 87 | 1011 | 10 | O 27.8 | |
| Oggi h: 07:30 | Pioggia | 16 | 14 | 87 | 1011 | 10 | O 31.5 | |
| Oggi h: 07:00 | Molto Nuvoloso | 16 | 14 | 87 | 1010 | 10 | O/SO 31.5 | |
| Oggi h: 06:30 | Coperto | 16 | 14 | 87 | 1010 | 10 | O/SO 27.8 | |
| Oggi h: 06:00 | Molto Nuvoloso | 15 | 14 | 93 | 1010 | 10 | O/SO 25.9 | |
| Oggi h: 05:30 | Molto Nuvoloso | 15 | 14 | 93 | 1010 | 10 | O/SO 27.8 | |
| Oggi h: 05:00 | Molto Nuvoloso | 15 | 14 | 93 | 1010 | 10 | O/SO 27.8 | |
| Oggi h: 04:30 | Poco Nuvoloso | 15 | 14 | 93 | 1010 | 10 | O 31.5 | |
| Oggi h: 04:00 | Nuvoloso | 15 | 14 | 93 | 1010 | 10 | O 31.5 | |
| Oggi h: 03:30 | Pioggia Foschia | 16 | 15 | 93 | 1009 | 5 | O/SO 29.6 | |
| Oggi h: 03:00 | Pioggia | 16 | 15 | 93 | 1009 | 4 | O/SO 29.6 | |
| Oggi h: 02:30 | Molto Nuvoloso | 16 | 15 | 93 | 1009 | 10 | O/SO 31.5 | |
| Oggi h: 02:00 | Coperto | 16 | 15 | 93 | 1009 | 10 | O/SO 33.3 | |
| Oggi h: 01:30 | Coperto | 16 | 15 | 93 | 1009 | 10 | O/SO 29.6 | |
| Oggi h: 01:00 | Pioggia | 16 | 14 | 87 | 1009 | 10 | SO 25.9 | |
| Oggi h: 00:30 | Poco Nuvoloso | 16 | 14 | 87 | 1009 | 10 | SO 29.6 | |
| Oggi h: 00:00 | Molto Nuvoloso | 16 | 14 | 87 | 1009 | 10 | SO 29.6 | |



